Weather History for Leonardtown, MD

Change the Weather History Date:

Tuesday, March 25, 2014

  Actual Average (KNHK) Record (KNHK)
Temperature  
Mean Temperature 32 °F -  
Max Temperature 35 °F 55 °F 74 °F (1988)
Min Temperature 28 °F 38 °F 25 °F (2009)
Degree Days  
Heating Degree Days 34    
Moisture  
Dew Point 28 °F    
Average Humidity 85    
Maximum Humidity 100    
Minimum Humidity 64    
Precipitation  
Precipitation 0.00 in - - ()
Sea Level Pressure  
Sea Level Pressure 29.99 in    
Wind  
Wind Speed 2 mph (East)    
Max Wind Speed 12 mph    
Max Gust Speed 20 mph    
Visibility 6 miles    
Events      
Averages and records for this station are not official NWS values.
T = Trace of Precipitation, MM = Missing Value Source: NWS Daily Summary

Daily Weather History Graph

Daily Weather History Graph

Search for Another Location

Airport:

Trip Planner

Search our weather history database for the weather conditions in past years. The results will help you decide how hot, cold, wet, or windy it might be!

Date:

Astronomy

Mar. 25, 2014 Rise Set
Actual Time 7:01 AM EDT 7:22 PM EDT
Civil Twilight 6:35 AM EDT 7:49 PM EDT
Nautical Twilight 6:04 AM EDT 8:20 PM EDT
Astronomical Twilight 5:32 AM EDT 8:52 PM EDT
Moon 3:17 AM EDT (3/25) 1:55 PM EDT (3/25)
Length of Visible Light 13h 13m
Length of Day
12h 20m
Waning Crescent, 32% of the Moon is Illuminated
Mar 25
Waning Crescent
Mar 30
New
Apr 7
First Quarter
Apr 15
Full
Apr 22
Last Quarter

Hourly Weather History & Observations

Time (EDT) Temp. Windchill Dew Point Humidity Pressure Visibility Wind Dir Wind Speed Gust Speed Precip Events Conditions
12:11 AM 28.4 °F - 17.6 °F 64% - - North - - N/A   Clear
12:31 AM 28.4 °F - 17.6 °F 64% - - North - - N/A   Unknown
12:51 AM 30.2 °F - 19.4 °F 64% 30.17 in 10.0 mi Calm Calm - N/A   Clear
1:11 AM 30.2 °F - 19.4 °F 64% 30.16 in 10.0 mi Calm Calm - N/A   Clear
1:31 AM 28.4 °F - 19.4 °F 69% 30.17 in 10.0 mi Calm Calm - N/A   Clear
1:51 AM 28.4 °F - 19.4 °F 69% 30.16 in 10.0 mi Calm Calm - N/A   Mostly Cloudy
2:11 AM 30.2 °F 26.7 °F 19.4 °F 64% 30.16 in 10.0 mi South 3.5 mph - N/A   Overcast
2:31 AM 30.2 °F - 21.2 °F 69% 30.16 in 10.0 mi Calm Calm - N/A   Mostly Cloudy
2:51 AM 30.2 °F - 21.2 °F 69% - 10.0 mi Calm Calm - N/A   Scattered Clouds
3:11 AM 30.2 °F - 21.2 °F 69% 30.14 in 10.0 mi Calm Calm - N/A   Scattered Clouds
3:32 AM 30.2 °F - 21.2 °F 69% 30.13 in 10.0 mi Calm Calm - N/A   Mostly Cloudy
3:52 AM 28.4 °F - 21.2 °F 74% 30.12 in 10.0 mi Calm Calm - N/A   Scattered Clouds
4:12 AM 28.4 °F - 21.2 °F 74% 30.11 in 10.0 mi Calm Calm - N/A   Clear
4:32 AM 28.4 °F - 21.2 °F 74% 30.12 in 10.0 mi Calm Calm - N/A   Clear
4:52 AM 30.2 °F - 23.0 °F 75% 30.11 in 10.0 mi Calm Calm - N/A   Clear
5:12 AM 30.2 °F - 23.0 °F 75% 30.10 in 10.0 mi Calm Calm - N/A   Scattered Clouds
5:32 AM 30.2 °F - 23.0 °F 75% 30.10 in 10.0 mi Calm Calm - N/A   Scattered Clouds
5:52 AM 30.2 °F - 23.0 °F 75% 30.10 in 10.0 mi Calm Calm - N/A   Scattered Clouds
6:12 AM 30.2 °F - 23.0 °F 75% 30.09 in 10.0 mi Calm Calm - N/A   Mostly Cloudy
6:32 AM 32.0 °F - 24.8 °F 75% 30.08 in 10.0 mi Calm Calm - N/A   Overcast
6:52 AM 32.0 °F - 24.8 °F 75% 30.08 in 10.0 mi Calm Calm - N/A   Overcast
7:12 AM 32.0 °F 28.7 °F 24.8 °F 75% 30.08 in 10.0 mi East 3.5 mph - N/A   Overcast
7:32 AM 32.0 °F 28.7 °F 24.8 °F 75% 30.09 in 10.0 mi ESE 3.5 mph - N/A   Overcast
7:52 AM 32.0 °F 27.5 °F 23.0 °F 69% 30.08 in 10.0 mi ESE 4.6 mph - N/A   Overcast
8:12 AM 33.8 °F 28.6 °F 23.0 °F 65% 30.09 in 10.0 mi SE 5.8 mph - N/A   Overcast
8:32 AM 33.8 °F 27.0 °F 23.0 °F 65% 30.09 in 10.0 mi SE 8.1 mph - N/A   Overcast
8:52 AM 33.8 °F 27.0 °F 23.0 °F 65% 30.08 in 10.0 mi ESE 8.1 mph - N/A   Overcast
9:12 AM 33.8 °F 27.7 °F 24.8 °F 70% 30.08 in 10.0 mi ESE 6.9 mph - N/A   Overcast
9:32 AM 33.8 °F 25.3 °F 26.6 °F 75% 30.08 in 10.0 mi ESE 11.5 mph 19.6 mph N/A   Overcast
9:52 AM 33.8 °F 25.8 °F 28.4 °F 81% 30.08 in 7.0 mi SE 10.4 mph - N/A   Overcast
10:12 AM 33.8 °F 25.8 °F 28.4 °F 81% 30.08 in 2.5 mi ESE 10.4 mph - N/A   Overcast
10:32 AM 32.0 °F 25.6 °F 30.2 °F 93% 30.07 in 2.5 mi ESE 6.9 mph - N/A   Overcast
10:52 AM 33.8 °F 27.0 °F 30.2 °F 87% 30.06 in 4.0 mi East 8.1 mph - N/A   Overcast
11:12 AM 33.8 °F 27.0 °F 30.2 °F 87% 30.05 in 1.8 mi East 8.1 mph - N/A   Overcast
11:32 AM 33.8 °F 27.7 °F 32.0 °F 93% 30.04 in 4.0 mi East 6.9 mph - N/A   Overcast
11:52 AM 33.8 °F 27.7 °F 32.0 °F 93% 30.03 in 3.0 mi ESE 6.9 mph - N/A   Overcast
12:13 PM 33.8 °F 27.0 °F 32.0 °F 93% 30.02 in 5.0 mi East 8.1 mph - N/A   Overcast
12:33 PM 33.8 °F 27.0 °F 32.0 °F 93% 30.00 in 7.0 mi East 8.1 mph - N/A   Overcast
12:53 PM 33.8 °F 27.7 °F 32.0 °F 93% 29.98 in 4.0 mi East 6.9 mph - N/A   Overcast
1:13 PM 33.8 °F 29.6 °F 32.0 °F 93% 29.97 in 10.0 mi East 4.6 mph - N/A   Overcast
1:33 PM 33.8 °F 28.6 °F 32.0 °F 93% 29.96 in 10.0 mi East 5.8 mph - N/A   Overcast
1:53 PM 35.6 °F 31.7 °F 32.0 °F 87% 29.94 in 10.0 mi East 4.6 mph - N/A   Overcast
2:13 PM 35.6 °F 31.7 °F 32.0 °F 87% 29.93 in 10.0 mi East 4.6 mph - N/A   Overcast
2:33 PM 35.6 °F 32.8 °F 32.0 °F 87% 29.91 in 10.0 mi East 3.5 mph - N/A   Overcast
2:53 PM 35.6 °F 31.7 °F 32.0 °F 87% 29.90 in 10.0 mi East 4.6 mph - N/A   Overcast
3:13 PM 35.6 °F 28.6 °F 32.0 °F 87% 29.89 in 10.0 mi East 9.2 mph - N/A   Overcast
3:33 PM 33.8 °F 29.6 °F 32.0 °F 93% 29.88 in 2.5 mi ENE 4.6 mph - N/A   Overcast
3:53 PM 32.0 °F - 32.0 °F 100% 29.87 in 1.0 mi Calm Calm - N/A   Overcast
4:13 PM 32.0 °F 28.7 °F 32.0 °F 100% 29.86 in 1.2 mi NE 3.5 mph - N/A   Unknown
4:33 PM 32.0 °F 28.7 °F 32.0 °F 100% 29.85 in 1.5 mi NNE 3.5 mph - N/A   Unknown
4:53 PM 32.0 °F - 32.0 °F 100% 29.85 in 1.0 mi Calm Calm - N/A   Overcast
5:13 PM 32.0 °F - 32.0 °F 100% 29.84 in 0.8 mi Calm Calm - N/A   Overcast
5:33 PM 32.0 °F - 32.0 °F 100% 29.84 in 1.0 mi Calm Calm - N/A   Unknown
5:53 PM 32.0 °F 26.4 °F 32.0 °F 100% 29.84 in 1.0 mi NNE 5.8 mph - N/A   Unknown
6:13 PM 32.0 °F 28.7 °F 32.0 °F 100% 29.84 in 0.8 mi NE 3.5 mph - N/A   Overcast
6:33 PM 32.0 °F 27.5 °F 32.0 °F 100% 29.85 in 0.8 mi NNE 4.6 mph - N/A   Overcast
6:53 PM 32.0 °F - 32.0 °F 100% 29.85 in 0.5 mi Calm Calm - N/A   Overcast
7:13 PM 32.0 °F - 32.0 °F 100% 29.85 in 1.0 mi Calm Calm - N/A   Overcast
7:33 PM 32.0 °F - 32.0 °F 100% 29.85 in 0.8 mi Calm Calm - N/A   Overcast
7:53 PM 32.0 °F - 32.0 °F 100% 29.85 in 2.0 mi Calm Calm - N/A   Overcast
8:13 PM 32.0 °F - 32.0 °F 100% 29.86 in 1.5 mi Calm Calm - N/A   Overcast
8:34 PM 32.0 °F - 32.0 °F 100% 29.86 in 1.8 mi Calm Calm - N/A   Overcast
8:54 PM 32.0 °F - 32.0 °F 100% 29.87 in 2.5 mi Calm Calm - N/A   Overcast
9:14 PM 32.0 °F - 32.0 °F 100% 29.88 in 2.5 mi Calm Calm - N/A   Overcast
9:34 PM 32.0 °F - 32.0 °F 100% 29.89 in 2.0 mi Calm Calm - N/A   Overcast
9:54 PM 32.0 °F 27.5 °F 32.0 °F 100% 29.88 in 5.0 mi North 4.6 mph - N/A   Overcast
10:14 PM 32.0 °F 28.7 °F 30.2 °F 93% 29.88 in 4.0 mi NNE 3.5 mph - N/A   Overcast
10:34 PM 32.0 °F 26.4 °F 30.2 °F 93% 29.89 in 3.0 mi North 5.8 mph - N/A   Overcast
10:54 PM 32.0 °F 28.7 °F 30.2 °F 93% 29.88 in 7.0 mi North 3.5 mph - N/A   Overcast
11:14 PM 32.0 °F 28.7 °F 30.2 °F 93% 29.88 in 2.5 mi North 3.5 mph - N/A   Overcast
11:34 PM 32.0 °F 27.5 °F 30.2 °F 93% 29.88 in 4.0 mi North 4.6 mph - N/A   Overcast
11:54 PM 32.0 °F 27.5 °F 30.2 °F 93% 29.88 in 5.0 mi North 4.6 mph - N/A   Overcast